This demonstration page uses our WeatherBlox Daily Observations layout. Learn more.

36.17497, -115.13722

Hourly Observations for February 27, 2015

Temp ( °F °C ) Dew Point ( °F °C ) Humidity (%) Winds ( mph kmh ) Pressure ( in mb ) Visibility ( mi km ) Precip ( " mm )
12:53 am 00:53 Clear 54 12.2 19 -7.2 25 25 NE 5 7 29.82 1010 10 16.0934 0 0
1:53 am 01:53 Clear 52 11.1 20 -6.7 28 28 N 7 11 29.81 1009 10 16.0934 0 0
2:53 am 02:53 Clear 50 10 21 -6.1 32 32 WNW 6 9 29.8 1009 10 16.0934 0 0
3:53 am 03:53 Clear 48 8.9 23 -5 37 37 Calm 29.81 1010 10 16.0934 0 0
4:53 am 04:53 Mostly Clear 47 8.3 25 -3.9 42 42 Calm 29.8 1009 10 16.0934 0 0
5:53 am 05:53 Mostly Clear 46 7.8 26 -3.3 46 46 WNW 8 13 29.82 1010 10 16.0934 0 0
6:53 am 06:53 Mostly Cloudy 47 8.3 27 -2.8 46 46 WNW 3 6 29.82 1010 10 16.0934 0 0
7:53 am 07:53 Partly Cloudy 51 10.6 27 -2.8 39 39 Calm 29.82 1010 10 16.0934 0 0
8:53 am 08:53 Mostly Cloudy 54 12.2 20 -6.7 26 26 SSW 6 9 29.83 1010 10 16.0934 0 0
9:53 am 09:53 Sunny 56 13.3 19 -7.2 24 24 E 3 6 29.82 1010 10 16.0934 0 0
10:53 am 10:53 Sunny 57 14 18 -8 21 21 VRB 3 6 29.74 1007 10 16.0934 0 0
11:53 am 11:53 Sunny 60 15.6 20 -6.7 21 21 SE 7 11 29.75 1007 10 16.0934 0 0
12:53 pm 12:53 Sunny 61 16.1 19 -7.2 20 20 S 7 11 29.7 1006 10 16.0934 0 0
1:53 pm 13:53 Sunny 62 16.7 18 -7.8 18 18 SSW 9 15 29.66 1005 10 16.0934 0 0
2:53 pm 14:53 Sunny 63 17.2 19 -7.2 18 18 S 7 11 29.63 1003 10 16.0934 0 0
3:53 pm 15:53 Sunny 63 17.2 21 -6.1 20 20 SE 13 20 29.61 1003 10 16.0934 0 0
4:53 pm 16:53 Sunny 62 16.7 23 -5 22 22 ESE 8 13 29.61 1003 10 16.0934 0 0
5:53 pm 17:53 Mostly Clear 59 15 23 -5 25 25 ESE 9 15 29.6 1002 10 16.0934 0 0
6:53 pm 18:53 Mostly Cloudy 59 15 25 -3.9 27 27 ESE 7 11 29.59 1002 10 16.0934 0 0
7:53 pm 19:53 Mostly Clear 58 14.4 24 -4.4 27 27 Calm 29.58 1002 10 16.0934 0 0
8:53 pm 20:53 Mostly Clear 56 13.3 26 -3.3 32 32 E 9 15 29.57 1001 10 16.0934 0 0.0254
9:53 pm 21:53 Clear 55 12.8 30 -1.1 38 38 S 8 13 29.57 1001 10 16.0934 0 0
10:53 pm 22:53 Clear 56 13.3 35 1.7 46 46 S 7 11 29.56 1001 10 16.0934 0 0
11:53 pm 23:53 Clear 56 13.3 33 0.6 42 42 SSW 14 22 29.54 1000 10 16.0934 0 0

Powered by AerisWeather